Вернуться в каталог

DELTA 1 DEB

АктивенPO
NORAD 21296·DEBRIS·🇺🇸 United States

Запущен Jun 12, 1975 с Vandenberg Space Force Base

Loading…

Ближайшие Пролёты (ближайшие 24 часа)

TLE

СвежийSource: Space-Track

Эпоха: Sep 14, 2026, 11:17 UTC

1 21296U 75052AH  26257.47070258  .00000209  00000-0  61077-3 0  9999
2 21296  99.5824  65.8244 0236706  57.9778 325.3563 13.10737301687997

Отслеживайте DELTA 1 DEB в реальном времени с AllMySat

Download on the App Store